Location: Centerville
(32.8776°N, 96.6203°W)
Time: 00:54:14
(UTC+00:00)

BREEZE-M DEB (TANK) - Pass Details

Date: 17 June 2021
Orbit: 306 x 14838 km, 49.5° (Epoch: 27 July)

Event Time Altitude Azimuth Distance (km) Brightness Sun altitude
Exits shadow 10:05:52 12° 172° (S) 1,219 4.5 -13.4°
Maximum altitude 10:07:07 16° 137° (SE) 945 4.3 -13.2°
Drops below altitude 10° 10:08:36 10° 93° (E) 1,182 5.5 -12.9°
Sets 10:10:55 0° 66° (ENE) 2,183 7.8 -12.5°
